GW0207 Weather Reports


time (UTC)temp
F
wind
direction
speed
knots
gust
knots
rain 1hr
in
rain 24hr
in
rain mn
in
humidity
%
barometer
mb
20260510183855 85 0 0.0 1.7 0.00 0.00 0.00 38 1013.5
20260510183357 85 108 0.0 2.6 0.00 0.00 0.00 36 1013.6
20260510182857 84 61 0.0 2.6 0.00 0.00 0.00 36 1013.7
20260510182356 85 335 0.0 1.7 0.00 0.00 0.00 36 1013.7
20260510181855 84 207 0.0 1.7 0.00 0.00 0.00 35 1013.7
20260510181615 84 101 0.0 1.7 0.00 0.00 0.00 37 1013.8
20260510180853 83 58 0.0 1.7 0.00 0.00 0.00 40 1013.8
20260510180355 83 249 0.0 1.7 0.00 0.00 0.00 38 1013.8
20260510175853 83 93 0.0 2.6 0.00 0.00 0.00 37 1013.9
20260510175352 83 279 0.9 5.2 0.00 0.00 0.00 37 1014.0
20260510174851 83 27 0.0 5.2 0.00 0.00 0.00 38 1014.1
20260510174608 84 84 0.0 1.7 0.00 0.00 0.00 41 1014.1
20260510173839 83 78 0.0 2.6 0.00 0.00 0.00 39 1014.0
20260510173339 83 22 0.0 2.6 0.00 0.00 0.00 41 1014.0
20260510172837 83 113 0.0 1.7 0.00 0.00 0.00 40 1014.1
20260510172337 83 95 0.0 0.9 0.00 0.00 0.00 38 1014.0
20260510171838 82 3 0.0 0.9 0.00 0.00 0.00 40 1014.0
20260510171337 82 82 0.0 0.9 0.00 0.00 0.00 41 1014.1
20260510170834 82 57 0.0 0.9 0.00 0.00 0.00 42 1014.1
20260510170333 82 71 0.0 2.6 0.00 0.00 0.00 38 1014.1
20260510165833 82 233 0.0 2.6 0.00 0.00 0.00 39 1014.1
20260510165554 82 197 0.0 2.6 0.00 0.00 0.00 42 1014.2
20260510164833 82 55 0.0 4.3 0.00 0.00 0.00 41 1014.2
20260510164810 81 256 0.0 4.3 0.00 0.00 0.00 39 1014.3
20260510163834 81 72 0.0 3.5 0.00 0.00 0.00 40 1014.3
20260510163331 81 45 0.0 3.5 0.00 0.00 0.00 39 1014.3
20260510163052 81 105 0.0 1.7 0.00 0.00 0.00 42 1014.3
20260510162331 81 359 0.0 3.5 0.00 0.00 0.00 41 1014.4
20260510162047 81 86 0.0 3.5 0.00 0.00 0.00 42 1014.4
20260510161329 80 230 0.0 2.6 0.00 0.00 0.00 42 1014.4
20260510160829 80 245 0.0 2.6 0.00 0.00 0.00 42 1014.4
20260510160329 80 245 0.0 3.5 0.00 0.00 0.00 46 1014.6
20260510155828 80 236 0.0 3.5 0.00 0.00 0.00 46 1014.6
20260510155329 80 345 0.0 1.7 0.00 0.00 0.00 47 1014.7
20260510154829 80 181 0.0 0.9 0.00 0.00 0.00 47 1014.8
20260510154329 80 346 0.0 0.9 0.00 0.00 0.00 50 1014.9
20260510154046 80 187 0.0 2.6 0.00 0.00 0.00 51 1014.9
20260510153329 79 227 0.0 2.6 0.00 0.00 0.00 50 1015.0
20260510153056 79 239 0.0 1.7 0.00 0.00 0.00 50 1014.9
20260510152328 79 72 0.0 3.5 0.00 0.00 0.00 54 1014.8
20260510152307 79 230 0.0 3.5 0.00 0.00 0.00 51 1014.8
20260510151329 79 242 0.0 0.9 0.00 0.00 0.00 53 1014.8
20260510150829 79 354 0.0 0.9 0.00 0.00 0.00 55 1014.8
20260510150329 78 358 0.0 1.7 0.00 0.00 0.00 56 1014.8
20260510145829 78 353 0.0 1.7 0.00 0.00 0.00 57 1014.7
20260510145329 78 336 0.0 1.7 0.00 0.00 0.00 57 1014.9
20260510144831 77 359 0.0 1.7 0.00 0.00 0.00 55 1014.8
20260510144331 77 357 0.0 2.6 0.00 0.00 0.00 56 1014.8
20260510143831 77 62 0.0 2.6 0.00 0.00 0.00 57 1014.8
20260510143330 77 103 0.0 0.9 0.00 0.00 0.00 58 1014.7
20260510142832 78 2 0.0 0.9 0.00 0.00 0.00 58 1014.7
20260510142331 77 338 0.0 0.9 0.00 0.00 0.00 62 1014.6
20260510141831 76 334 0.0 0.9 0.00 0.00 0.00 63 1014.6
20260510141329 76 121 0.0 1.7 0.00 0.00 0.00 65 1014.6
20260510141047 75 356 0.0 1.7 0.00 0.00 0.00 65 1014.7
20260510140330 75 352 0.0 1.7 0.00 0.00 0.00 67 1014.8
20260510135831 75 354 0.0 1.7 0.00 0.00 0.00 66 1014.7
20260510135331 74 277 0.0 2.6 0.00 0.00 0.00 68 1014.8
20260510134828 74 299 0.0 2.6 0.00 0.00 0.00 69 1014.8
20260510134329 74 77 0.0 3.5 0.00 0.00 0.00 72 1014.6
20260510133829 73 332 0.0 3.5 0.00 0.00 0.00 70 1014.7
20260510133329 73 342 0.0 0.9 0.00 0.00 0.00 75 1014.7
20260510132829 72 356 0.0 1.7 0.00 0.00 0.00 75 1014.6
20260510132329 72 27 0.0 1.7 0.00 0.00 0.00 77 1014.7
20260510131829 71 356 0.0 1.7 0.00 0.00 0.00 79 1014.7
20260510131329 71 124 0.0 1.7 0.00 0.00 0.00 81 1014.6
20260510130829 70 105 0.0 1.7 0.00 0.00 0.00 82 1014.5
20260510130551 70 349 0.0 0.0 0.00 0.00 0.00 86 1014.4
20260510125829 69 349 0.0 0.0 0.00 0.00 0.00 89 1014.3
20260510125331 68 349 0.0 0.0 0.00 0.00 0.00 91 1014.3
20260510124829 67 349 0.0 0.0 0.00 0.00 0.00 94 1014.2
20260510124328 65 349 0.0 0.9 0.00 0.00 0.00 95 1014.2
20260510124051 64 351 0.0 0.9 0.00 0.00 0.00 96 1014.2
20260510123330 64 346 0.0 0.0 0.00 0.00 0.00 97 1014.2
20260510122829 63 22 0.0 0.0 0.00 0.00 0.00 97 1014.2
20260510122329 62 109 0.0 0.0 0.00 0.00 0.00 97 1014.2
20260510121828 62 159 0.0 0.0 0.00 0.00 0.00 97 1014.2
20260510121329 62 158 0.0 0.0 0.00 0.00 0.00 97 1014.1
20260510120829 62 158 0.0 0.0 0.00 0.00 0.00 97 1014.0
20260510120329 61 158 0.0 0.0 0.00 0.00 0.00 97 1014.0
20260510115828 61 158 0.0 0.0 0.00 0.00 0.00 97 1014.0
20260510115329 61 158 0.0 0.0 0.00 0.00 0.00 97 1014.0
20260510114829 61 159 0.0 0.0 0.00 0.00 0.00 97 1013.8
20260510114328 61 159 0.0 0.0 0.00 0.00 0.00 97 1013.8
20260510113829 60 159 0.0 0.0 0.00 0.00 0.00 97 1013.7
20260510113330 60 158 0.0 0.0 0.00 0.00 0.00 97 1013.7
20260510113051 60 158 0.0 0.0 0.00 0.00 0.00 97 1013.6
20260510112329 60 158 0.0 0.0 0.00 0.00 0.00 97 1013.5
20260510111829 60 158 0.0 0.0 0.00 0.00 0.00 97 1013.5
20260510111329 59 159 0.0 0.0 0.00 0.00 0.00 97 1013.4
20260510111050 59 159 0.0 0.0 0.00 0.00 0.00 97 1013.3
20260510110329 59 153 0.0 0.0 0.00 0.00 0.00 97 1013.1
20260510105829 59 153 0.0 0.0 0.00 0.00 0.00 97 1013.1
20260510105329 59 153 0.0 0.0 0.00 0.00 0.00 97 1013.2
20260510104828 58 151 0.0 0.0 0.00 0.00 0.00 97 1013.2
20260510104331 58 149 0.0 0.0 0.00 0.00 0.00 97 1013.0
20260510103831 58 149 0.0 0.0 0.00 0.00 0.00 97 1012.7
20260510103329 58 148 0.0 0.0 0.00 0.00 0.00 97 1012.6
20260510102828 58 148 0.0 0.0 0.00 0.00 0.00 97 1012.5
20260510102330 58 148 0.0 0.0 0.00 0.00 0.00 97 1012.5
20260510101829 58 150 0.0 0.0 0.00 0.00 0.00 97 1012.4
20260510101329 58 150 0.0 0.0 0.00 0.00 0.00 97 1012.3
20260510100828 58 150 0.0 0.0 0.00 0.00 0.00 97 1012.3
20260510100548 58 150 0.0 0.0 0.00 0.00 0.00 97 1012.3
20260510095829 58 150 0.0 0.0 0.00 0.00 0.00 97 1012.1
20260510095329 59 150 0.0 0.0 0.00 0.00 0.00 97 1012.1
20260510094828 59 150 0.0 0.0 0.00 0.00 0.00 97 1012.0
20260510094329 59 150 0.0 0.0 0.00 0.00 0.00 97 1012.0
20260510093831 59 150 0.0 0.0 0.00 0.00 0.00 97 1011.9
20260510093331 59 150 0.0 0.0 0.00 0.00 0.00 97 1011.9
20260510092831 59 150 0.0 0.0 0.00 0.00 0.00 97 1011.8
20260510092330 59 150 0.0 0.0 0.00 0.00 0.00 96 1011.9
20260510091830 59 150 0.0 0.0 0.00 0.00 0.00 96 1011.8
20260510091329 59 150 0.0 0.0 0.00 0.00 0.00 96 1011.8
20260510090828 60 150 0.0 0.0 0.00 0.00 0.00 97 1011.8
20260510090329 60 150 0.0 0.0 0.00 0.00 0.00 97 1011.7
20260510085830 60 150 0.0 0.0 0.00 0.00 0.00 97 1011.6
20260510085329 59 150 0.0 0.0 0.00 0.00 0.00 97 1011.5
20260510084829 59 150 0.0 0.0 0.00 0.00 0.00 96 1011.5
20260510084552 59 150 0.0 0.0 0.00 0.00 0.00 96 1011.4
20260510084051 59 150 0.0 0.0 0.00 0.00 0.00 96 1011.4
20260510083329 60 150 0.0 0.0 0.00 0.00 0.00 96 1011.5
20260510082829 60 150 0.0 0.0 0.00 0.00 0.00 96 1011.4
20260510082555 60 150 0.0 0.0 0.00 0.00 0.00 96 1011.4
20260510081829 60 150 0.0 0.0 0.00 0.00 0.00 96 1011.3
20260510081551 60 150 0.0 0.0 0.00 0.00 0.00 96 1011.2
20260510080831 60 150 0.0 0.0 0.00 0.00 0.00 96 1011.3
20260510080331 60 150 0.0 0.0 0.00 0.00 0.00 96 1011.4
20260510075830 60 150 0.0 0.0 0.00 0.00 0.00 96 1011.3
20260510075331 60 150 0.0 0.0 0.00 0.00 0.00 96 1011.2
20260510075052 60 150 0.0 0.0 0.00 0.00 0.00 96 1011.2
20260510074329 60 150 0.0 0.0 0.00 0.00 0.00 96 1011.2
20260510074047 60 150 0.0 0.0 0.00 0.00 0.00 96 1011.1
20260510073328 60 150 0.0 0.0 0.00 0.00 0.00 96 1011.1
20260510072829 60 150 0.0 0.0 0.00 0.00 0.00 96 1011.2
20260510072329 60 150 0.0 0.0 0.00 0.00 0.00 96 1011.1
20260510071829 60 150 0.0 0.0 0.00 0.00 0.00 96 1011.3
20260510071328 60 150 0.0 0.0 0.00 0.00 0.00 96 1011.3
20260510070829 60 150 0.0 0.0 0.00 0.00 0.00 96 1011.2
20260510070549 60 150 0.0 0.0 0.00 0.00 0.00 96 1011.2
20260510070047 60 150 0.0 0.0 0.00 0.00 0.00 96 1011.1
20260510065329 60 150 0.0 0.0 0.00 0.00 0.00 96 1011.1
20260510064828 60 150 0.0 0.0 0.00 0.00 0.00 96 1011.1
20260510064330 60 150 0.0 0.0 0.00 0.00 0.00 96 1011.1
20260510063829 60 150 0.0 0.0 0.00 0.00 0.00 95 1011.0
20260510063329 61 150 0.0 0.0 0.00 0.00 0.00 96 1011.0
20260510063308 61 150 0.0 0.0 0.00 0.00 0.00 96 1010.9
20260510062332 61 150 0.0 0.0 0.00 0.00 0.00 96 1010.9
20260510061831 61 150 0.0 0.0 0.00 0.00 0.00 95 1011.0
20260510061331 61 150 0.0 0.0 0.00 0.00 0.00 95 1011.2
20260510060830 61 150 0.0 0.0 0.00 0.00 0.00 95 1011.3
20260510060332 61 150 0.0 0.0 0.00 0.00 0.00 95 1011.3
20260510055831 61 150 0.0 0.0 0.00 0.00 0.00 95 1011.2
20260510055331 61 150 0.0 0.0 0.00 0.00 0.00 95 1011.2
20260510055051 61 150 0.0 0.0 0.00 0.00 0.00 95 1011.3
20260510054333 61 150 0.0 0.0 0.00 0.00 0.00 95 1011.3
20260510053829 61 150 0.0 0.0 0.00 0.00 0.00 95 1011.3
20260510053329 61 150 0.0 0.0 0.00 0.00 0.00 95 1011.3
20260510052828 61 150 0.0 0.0 0.00 0.00 0.00 95 1011.4
20260510052329 61 150 0.0 0.0 0.00 0.00 0.00 95 1011.5
20260510052052 61 150 0.0 0.0 0.00 0.00 0.00 94 1011.5
20260510051329 61 150 0.0 0.0 0.00 0.00 0.00 94 1011.6
20260510050829 61 150 0.0 0.0 0.00 0.00 0.00 95 1011.6
20260510050330 62 150 0.0 0.0 0.00 0.00 0.00 94 1011.6
20260510045828 62 150 0.0 0.0 0.00 0.00 0.00 94 1011.7
20260510045330 62 150 0.0 0.0 0.00 0.00 0.00 94 1011.8
20260510044829 62 150 0.0 0.0 0.00 0.00 0.00 94 1011.9
20260510044332 62 150 0.0 0.0 0.00 0.00 0.00 95 1011.6
20260510043828 62 150 0.0 0.0 0.00 0.00 0.00 94 1011.6
20260510043331 62 150 0.0 0.0 0.00 0.00 0.00 95 1011.6
20260510042831 62 150 0.0 0.0 0.00 0.00 0.00 95 1011.5
20260510042331 62 150 0.0 0.0 0.00 0.00 0.00 94 1011.6
20260510041829 62 150 0.0 0.0 0.00 0.00 0.00 94 1011.6
20260510041330 62 150 0.0 0.0 0.00 0.00 0.00 94 1011.6
20260510040829 62 150 0.0 0.0 0.00 0.00 0.00 95 1011.5
20260510040329 62 150 0.0 0.0 0.00 0.00 0.00 95 1011.5
20260510035829 62 150 0.0 0.0 0.00 0.00 0.00 95 1011.5
20260510035328 62 150 0.0 0.0 0.00 0.00 0.00 94 1011.5
20260510034829 62 150 0.0 0.0 0.00 0.00 0.00 94 1011.4
20260510034329 62 150 0.0 0.0 0.00 0.00 0.00 94 1011.4
20260510033829 62 150 0.0 0.0 0.00 0.00 0.00 94 1011.4
20260510033550 62 150 0.0 0.0 0.00 0.00 0.00 94 1011.3
20260510032829 62 150 0.0 0.0 0.00 0.00 0.00 94 1011.3
20260510032330 62 150 0.0 0.0 0.00 0.00 0.00 94 1011.3
20260510031829 62 150 0.0 0.0 0.00 0.00 0.00 94 1011.3
20260510031328 62 150 0.0 0.0 0.00 0.00 0.00 93 1011.3
20260510030828 62 150 0.0 0.0 0.00 0.00 0.00 93 1011.3
20260510030329 62 150 0.0 0.0 0.00 0.00 0.00 93 1011.1
20260510025829 62 150 0.0 0.0 0.00 0.00 0.00 93 1011.2
20260510025329 62 150 0.0 0.0 0.00 0.00 0.00 93 1011.1
20260510024830 62 150 0.0 0.0 0.00 0.00 0.00 93 1011.2
20260510024555 62 150 0.0 0.0 0.00 0.00 0.00 93 1011.2
20260510023825 62 150 0.0 0.0 0.00 0.00 0.00 92 1011.2
20260510023537 62 150 0.0 0.0 0.00 0.00 0.00 92 1011.1
20260510022820 62 150 0.0 0.0 0.00 0.00 0.00 92 1011.1
20260510022317 63 150 0.0 0.0 0.00 0.00 0.00 92 1011.1
20260510021818 63 150 0.0 0.0 0.00 0.00 0.00 92 1011.2
20260510021317 63 150 0.0 0.0 0.00 0.00 0.00 91 1011.2
20260510020816 63 150 0.0 0.0 0.00 0.00 0.00 91 1011.2
20260510020314 63 150 0.0 0.0 0.00 0.00 0.00 91 1011.0
20260510015811 63 150 0.0 0.0 0.00 0.00 0.00 90 1011.0
20260510015309 63 150 0.0 0.0 0.00 0.00 0.00 90 1011.0
20260510014807 64 150 0.0 0.0 0.00 0.00 0.00 89 1010.9
20260510014305 64 150 0.0 0.0 0.00 0.00 0.00 89 1010.7
20260510013804 64 150 0.0 0.0 0.00 0.00 0.00 89 1010.6
20260510013303 64 150 0.0 0.0 0.00 0.00 0.00 89 1010.6
20260510012804 64 150 0.0 0.0 0.00 0.00 0.00 88 1010.5
20260510012306 65 150 0.0 0.0 0.00 0.00 0.00 88 1010.4
20260510011802 65 150 0.0 0.0 0.00 0.00 0.00 87 1010.4
20260510011303 65 150 0.0 0.0 0.00 0.00 0.00 87 1010.3
20260510010803 65 150 0.0 0.0 0.00 0.00 0.00 86 1010.3
20260510010302 66 150 0.0 0.0 0.00 0.00 0.00 86 1010.3
20260510005803 66 150 0.0 0.0 0.00 0.00 0.00 85 1010.2
20260510005257 66 150 0.0 0.0 0.00 0.00 0.00 85 1010.2
20260510005009 66 150 0.0 0.0 0.00 0.00 0.00 85 1010.2
20260510004510 67 150 0.0 0.0 0.00 0.00 0.00 84 1010.2
20260510003739 67 150 0.0 0.0 0.00 0.00 0.00 84 1010.0
20260510003231 67 150 0.0 0.0 0.00 0.00 0.00 83 1010.3
20260510002730 67 150 0.0 0.0 0.00 0.00 0.00 83 1010.2
20260510002454 68 150 0.0 0.0 0.00 0.00 0.00 82 1010.2
20260510001728 68 150 0.0 0.0 0.00 0.00 0.00 82 1010.2
20260510001230 68 150 0.0 0.0 0.00 0.00 0.00 81 1010.0
20260510000729 69 150 0.0 0.0 0.00 0.00 0.00 80 1009.9
20260510000450 69 150 0.0 0.0 0.00 0.00 0.00 80 1009.9
20260509235729 69 150 0.0 0.0 0.00 0.00 0.00 79 1009.8
20260509235229 70 148 0.0 0.0 0.00 0.00 0.00 79 1009.8
20260509234731 70 145 0.0 0.0 0.00 0.00 0.00 78 1009.6
20260509234229 70 144 0.0 0.0 0.00 0.00 0.00 77 1009.4
20260509233729 71 144 0.0 0.0 0.00 0.00 0.00 77 1009.4
20260509233229 71 143 0.0 0.0 0.00 0.00 0.00 77 1009.6
20260509232729 71 357 0.0 0.0 0.00 0.00 0.00 76 1009.5
20260509232229 71 357 0.0 0.0 0.00 0.00 0.00 76 1009.4
20260509231729 71 357 0.0 0.9 0.00 0.00 0.00 75 1009.2
20260509231228 72 357 0.0 0.9 0.00 0.00 0.00 76 1009.3
20260509230951 72 15 0.0 0.9 0.00 0.00 0.00 74 1009.3
20260509230229 72 47 0.0 0.9 0.00 0.00 0.00 74 1009.2
20260509225729 72 81 0.0 0.9 0.00 0.00 0.00 74 1009.1
20260509225229 72 9 0.0 0.9 0.00 0.00 0.00 74 1009.1
20260509224730 73 216 0.0 0.9 0.00 0.00 0.00 73 1009.2
20260509224231 73 240 0.0 0.9 0.00 0.00 0.00 73 1009.1
20260509223937 73 57 0.0 0.9 0.00 0.00 0.00 72 1009.3
20260509223928 73 50 0.0 0.9 0.00 0.00 0.00 73 1009.3
20260509222731 73 36 0.0 0.9 0.00 0.00 0.00 71 1009.4
20260509222231 73 342 0.0 1.7 0.00 0.00 0.00 72 1009.3
20260509221731 73 45 0.0 1.7 0.00 0.00 0.00 72 1009.4
20260509221450 73 50 0.0 0.9 0.00 0.00 0.00 72 1009.3
20260509220730 73 59 0.0 0.9 0.00 0.00 0.00 71 1009.3
20260509220231 73 29 0.0 1.7 0.00 0.00 0.00 71 1009.4
20260509215731 73 36 0.0 1.7 0.00 0.00 0.00 71 1009.3
20260509215231 73 35 0.0 0.9 0.00 0.00 0.00 71 1009.3
20260509214731 74 39 0.0 0.9 0.00 0.00 0.00 70 1009.3
20260509214231 74 31 0.0 0.9 0.00 0.00 0.00 70 1009.3
20260509213731 74 5 0.0 0.9 0.00 0.00 0.00 70 1009.3
20260509213232 74 81 0.0 0.9 0.00 0.00 0.00 71 1009.1
20260509212731 73 41 0.0 0.9 0.00 0.00 0.00 71 1009.0
20260509212452 73 62 0.0 0.9 0.00 0.00 0.00 71 1009.0
20260509211731 73 46 0.0 0.9 0.00 0.00 0.00 71 1009.0
20260509211231 73 47 0.0 0.9 0.00 0.00 0.00 72 1009.0
20260509210731 73 233 0.0 1.7 0.00 0.00 0.00 72 1009.0
20260509210231 73 50 0.0 1.7 0.00 0.00 0.00 70 1009.1
20260509210216 73 38 0.0 2.6 0.00 0.00 0.00 71 1009.1
20260509205451 73 83 0.0 2.6 0.00 0.00 0.00 70 1009.2
20260509204731 73 41 0.0 0.9 0.00 0.00 0.00 71 1009.2
20260509204231 73 58 0.0 0.9 0.00 0.00 0.00 70 1009.0
20260509203233 73 55 0.0 2.6 0.00 0.00 0.00 70 1009.1
20260509202731 73 106 0.0 2.6 0.00 0.00 0.00 70 1009.1
20260509202231 73 115 0.0 2.6 0.00 0.00 0.00 70 1009.1
20260509201731 73 242 0.0 1.7 0.00 0.00 0.00 70 1009.1
20260509201232 73 7 0.0 1.7 0.00 0.00 0.00 69 1009.1
20260509200732 73 59 0.0 1.7 0.00 0.00 0.00 69 1009.2
20260509200231 73 49 0.0 0.9 0.00 0.00 0.00 69 1009.4
20260509195950 73 149 0.0 0.9 0.00 0.00 0.00 68 1009.3
20260509195231 73 109 0.0 2.6 0.00 0.00 0.00 67 1009.4
20260509194731 73 66 0.0 2.6 0.00 0.00 0.00 66 1009.3
20260509194231 73 48 0.0 1.7 0.00 0.00 0.00 66 1009.3
20260509193953 73 65 0.0 1.7 0.00 0.00 0.00 65 1009.4
20260509193231 73 50 0.0 0.9 0.00 0.00 0.00 64 1009.5
20260509192731 74 48 0.0 0.9 0.00 0.00 0.00 63 1009.7
20260509192231 74 24 0.0 1.7 0.00 0.00 0.00 64 1009.7
20260509191731 74 64 0.0 3.5 0.00 0.00 0.00 64 1009.6
20260509191456 74 58 0.0 3.5 0.00 0.00 0.00 63 1009.7
20260509190730 74 15 0.0 4.3 0.00 0.00 0.00 61 1009.8
20260509190719 75 290 0.0 4.3 0.00 0.00 0.00 59 1009.7
20260509185731 76 43 0.0 2.6 0.00 0.00 0.00 59 1009.6
20260509185233 76 52 0.0 2.6 0.00 0.00 0.00 57 1009.6
20260509184730 76 275 0.0 7.0 0.00 0.00 0.00 58 1009.6
20260509184232 76 241 0.9 7.0 0.00 0.00 0.00 59 1009.6